Regional Weather Roundup
Issued by NWS

Home | Current Version | Previous Version | Text Only | Print | Product List | Glossary On
Versions: 1 2 3 4 5 6 7 8 9 10 11 12 13 14 15 16 17 18 19 20 21 22 23 24 25 26 27 28 29 30 31 32 33 34 35 36 37 38 39 40 41 42 43 44 45 46 47 48 49 50
000
ASUS44 KLIX 240312
RWRLA
LOUISIANA WEATHER ROUNDUP
NATIONAL WEATHER SERVICE NEW ORLEANS LA
1000 PM CDT SUN APR 23 2017

NOTE: "FAIR" INDICATES FEW OR NO CLOUDS BELOW 12,000 FEET WITH NO
      SIGNIFICANT WEATHER AND/OR OBSTRUCTIONS TO VISIBILITY.
      SKY/WX - SKY CONDITION AND SIGNIFICANT WEATHER.
      TMP - AIR TEMPERATURE.    DP   - DEWPOINT TEMPERATURE.
      RH  - RELATIVE HUMIDITY.  PRES - PRESSURE.
      HX  - HEAT INDEX.         WCI  - WIND CHILL INDEX.

*  THESE STATIONS ARE NOT NWS OR FAA STATIONS AND ARE NOT UNDER
   NWS QUALITY CONTROL.

LAZ040-048-061>063-065-066-069-240400-
SOUTHEAST LOUISIANA

CITY           SKY/WX    TMP DP  RH WIND       PRES   REMARKS
N.O. INTL ARPT PTCLDY    60  50  69 N10       29.97R
N.O. LAKEFRONT PTCLDY    62  52  69 N17       29.97R
N.O. DOWNTOWN*   N/A     62  50  64 N7          N/A
RESERVE*       NOT AVBL
SLIDELL        CLOUDY    56  51  84 CALM      29.96R
BATON ROUGE    CLEAR     55  51  86 CALM      29.98R
BOOTHVILLE     CLOUDY    63  52  67 N16G23    29.95R
BELLE CHASSE   PTCLDY   N/A N/A N/A VRB7      29.96R
BOGALUSA*      NOT AVBL
GALLIANO*      CLOUDY    61  47  60 N12G17    29.97R
NEW ROADS*     FAIR      53  51  94 SW5       29.99R
GONZALES*      FAIR      54  51  90 CALM      29.98R
HAMMOND*       CLEAR     54  50  87 CALM      29.97S
HOUMA*         CLEAR     57  50  77 NW6       29.98R
PORT FOURCHON* CLOUDY    63  50  63 N14G22    29.97R

$$

LAZ041-044-053-054-240400-
SOUTHWEST LOUISIANA

CITY           SKY/WX    TMP DP  RH WIND       PRES   REMARKS
LAKE CHARLES   CLEAR     55  52  89 CALM      30.00R
LAFAYETTE      CLEAR     60  50  69 W3        30.00R
PATTERSON      CLEAR     59  52  77 N5        30.00R
SALT POINT       N/A     59  50  72 CALM      29.99R
NEW IBERIA     CLEAR     56  49  77 CALM      30.00R
CHENAULT AIRPK CLEAR     59  50  72 CALM      29.99S

$$

LAZ027-028-240400-
CENTRAL LOUISIANA

CITY           SKY/WX    TMP DP  RH WIND       PRES   REMARKS
FORT POLK      CLEAR     54  52  92 N5        30.00R
ALEXANDRIA INT CLEAR     54  52  93 CALM      29.98R
ALEXANDRIA     CLEAR     52  52 100 CALM      29.99R

$$

LAZ001-002-240400-
NORTHWEST LOUISIANA

CITY           SKY/WX    TMP DP  RH WIND       PRES   REMARKS
SHREVEPORT     CLEAR     56  50  80 W3        30.00R
BARKSDALE AFB  CLEAR     56  49  75 CALM      29.99S
DTN SHREVEPORT CLEAR     60  48  64 CALM      30.00R

$$

LAZ014-016-240400-
NORTHEAST LOUISIANA

CITY           SKY/WX    TMP DP  RH WIND       PRES   REMARKS
MONROE         CLEAR     57  51  80 CALM      29.99R
TALLULAH       PTCLDY    56  51  84 CALM      29.98R

$$




USA.gov is the U.S. government's official web portal to all federal, state and local government web resources and services.